YO6IKB-10 Weather Reports


Display with metric or nautical units.
time (UTC)temp
F
wind
direction
speed
MPH
gust
MPH
rain 1hr
in
rain 24hr
in
rain mn
in
humidity
%
barometer
mb
20220809230907 64 292 0.0 3.0 0.00 0.00 0.00 85 1016.5
20220809230406 64 292 0.0 2.0 0.00 0.00 0.00 85 1016.6
20220809225906 64 292 2.0 3.0 0.00 0.00 0.00 85 1016.7
20220809225406 64 292 0.0 2.0 0.00 0.00 0.00 85 1016.7
20220809224905 64 292 0.0 3.0 0.00 0.00 0.00 85 1016.7
20220809224405 64 292 2.0 3.0 0.00 0.00 0.00 85 1016.8
20220809223905 64 292 2.0 3.0 0.00 0.00 0.00 85 1016.9
20220809223404 64 337 1.0 1.0 0.00 0.00 0.00 85 1017.0
20220809222904 64 337 0.0 0.0 0.00 0.00 0.00 85 1017.1
20220809222404 64 337 0.0 0.0 0.00 0.00 0.00 85 1017.2
20220809221904 64 337 0.0 2.0 0.00 0.00 0.00 85 1017.4
20220809221403 64 292 0.0 2.0 0.00 0.00 0.00 85 1017.3
20220809220903 64 292 0.0 2.0 0.00 0.00 0.00 85 1017.4
20220809220403 64 315 1.0 2.0 0.00 0.00 0.00 85 1017.3
20220809215902 64 315 2.0 2.0 0.00 0.00 0.00 85 1017.3
20220809215402 64 337 1.0 1.0 0.00 0.00 0.00 84 1017.2
20220809214902 64 337 0.0 2.0 0.00 0.00 0.00 84 1017.2
20220809214402 64 315 0.0 0.0 0.00 0.00 0.00 84 1017.3
20220809213901 64 315 0.0 0.0 0.00 0.00 0.00 84 1017.3
20220809213401 64 315 0.0 2.0 0.00 0.00 0.00 84 1017.3
20220809212901 64 0 0.0 2.0 0.00 0.00 0.00 83 1017.4
20220809212400 64 270 0.0 1.0 0.00 0.00 0.00 83 1017.4
20220809211900 64 270 1.0 2.0 0.00 0.00 0.00 83 1017.4
20220809211400 64 315 1.0 5.0 0.00 0.00 0.00 83 1017.4
20220809210900 65 247 2.0 4.0 0.00 0.00 0.00 83 1017.3
20220809210359 65 247 3.0 4.0 0.00 0.00 0.00 83 1017.4
20220809205859 65 270 2.0 4.0 0.00 0.00 0.00 83 1017.5
20220809205359 65 225 1.0 5.0 0.00 0.00 0.00 83 1017.5
20220809204858 65 270 1.0 4.0 0.00 0.00 0.00 83 1017.4
20220809204358 65 247 3.0 5.0 0.00 0.00 0.00 83 1017.4
20220809203858 65 292 0.0 2.0 0.00 0.00 0.00 83 1017.4
20220809203357 65 292 0.0 2.0 0.00 0.00 0.00 83 1017.3
20220809202857 65 292 2.0 2.0 0.00 0.00 0.00 83 1017.3
20220809202357 65 292 0.0 2.0 0.00 0.00 0.00 83 1017.3
20220809201857 65 292 1.0 2.0 0.00 0.00 0.00 83 1017.3
20220809201356 65 292 1.0 2.0 0.00 0.00 0.00 83 1017.3
20220809200856 65 292 2.0 2.0 0.00 0.00 0.00 83 1017.2
20220809200356 65 292 1.0 4.0 0.00 0.00 0.00 83 1017.2
20220809195855 65 270 3.0 4.0 0.00 0.00 0.00 83 1017.3
20220809195355 65 292 0.0 3.0 0.00 0.00 0.00 82 1017.3
20220809194855 65 292 0.0 2.0 0.00 0.00 0.00 82 1017.2
20220809194355 65 292 1.0 3.0 0.00 0.00 0.00 82 1017.2
20220809193854 65 292 1.0 3.0 0.00 0.00 0.00 82 1017.2
20220809193354 65 315 0.0 1.0 0.00 0.00 0.00 82 1017.2
20220809192854 66 22 0.0 2.0 0.00 0.00 0.00 82 1017.3
20220809192353 66 0 1.0 3.0 0.00 0.00 0.00 81 1017.2
20220809191853 66 0 2.0 4.0 0.00 0.00 0.00 81 1017.2
20220809191353 66 0 2.0 3.0 0.00 0.00 0.00 80 1017.1
20220809190852 66 180 0.0 1.0 0.00 0.00 0.00 80 1016.8
20220809190352 66 180 0.0 1.0 0.00 0.00 0.00 80 1016.6
20220809185852 66 180 0.0 1.0 0.00 0.00 0.00 81 1016.7
20220809185352 66 180 0.0 1.0 0.00 0.00 0.00 81 1016.7
20220809184851 66 180 0.0 1.0 0.00 0.00 0.00 81 1016.6
20220809184351 66 180 1.0 3.0 0.00 0.00 0.00 81 1016.8
20220809183851 66 157 1.0 3.0 0.00 0.00 0.00 81 1016.9
20220809183350 66 180 0.0 4.0 0.00 0.00 0.00 81 1016.9
20220809182850 66 202 1.0 6.0 0.00 0.00 0.00 81 1016.9
20220809182350 66 202 3.0 7.0 0.00 0.00 0.00 80 1017.0
20220809181850 66 315 3.0 4.0 0.00 0.00 0.00 80 1017.1
20220809181349 66 270 2.0 3.0 0.00 0.00 0.00 80 1017.1
20220809180849 66 270 1.0 4.0 0.00 0.00 0.00 79 1017.0
20220809180349 66 315 3.0 4.0 0.00 0.00 0.00 79 1017.0
20220809175848 66 292 2.0 7.0 0.00 0.00 0.00 79 1016.9
20220809175348 66 112 0.0 2.0 0.00 0.00 0.00 79 1016.8
20220809174848 66 112 0.0 1.0 0.00 0.00 0.00 80 1016.9
20220809174347 66 112 0.0 1.0 0.00 0.00 0.00 80 1016.6
20220809173847 66 112 0.0 3.0 0.00 0.00 0.00 80 1016.5
20220809173347 66 135 1.0 4.0 0.00 0.00 0.00 80 1016.4
20220809172847 66 90 0.0 4.0 0.00 0.00 0.00 80 1016.4
20220809172346 66 67 3.0 4.0 0.00 0.00 0.00 80 1016.4
20220809171846 66 45 1.0 5.0 0.00 0.00 0.00 81 1016.5
20220809171346 66 90 2.0 6.0 0.00 0.00 0.00 81 1016.5
20220809170845 66 45 2.0 8.0 0.00 0.00 0.00 81 1016.5
20220809170345 66 67 3.0 9.0 0.00 0.00 0.00 82 1016.5
20220809165845 66 67 2.0 7.0 0.00 0.00 0.00 82 1016.5
20220809165345 65 90 4.0 8.0 0.00 0.00 0.00 82 1016.5
20220809164844 65 67 3.0 7.0 0.00 0.00 0.00 82 1016.6
20220809164344 65 67 2.0 5.0 0.00 0.00 0.00 82 1016.6
20220809163844 65 67 4.0 5.0 0.00 0.00 0.00 81 1016.6
20220809163343 65 45 5.0 5.0 0.00 0.00 0.00 81 1016.7
20220809162843 65 45 2.0 3.0 0.00 0.00 0.00 81 1016.7
20220809162343 65 45 2.0 3.0 0.00 0.00 0.00 81 1016.7
20220809161842 65 22 1.0 3.0 0.00 0.00 0.00 80 1016.6
20220809161342 65 45 0.0 3.0 0.00 0.00 0.00 81 1016.6
20220809160842 65 45 1.0 2.0 0.00 0.00 0.00 81 1016.6
20220809160342 64 45 1.0 2.0 0.00 0.00 0.00 81 1016.6
20220809155841 65 67 1.0 2.0 0.00 0.00 0.00 81 1016.5
20220809155341 64 0 1.0 1.0 0.00 0.00 0.00 81 1016.5
20220809154841 64 0 0.0 4.0 0.00 0.00 0.00 80 1016.6
20220809154340 64 292 2.0 6.0 0.00 0.00 0.00 79 1016.7
20220809153840 65 22 0.0 3.0 0.00 0.00 0.00 79 1016.5
20220809153340 65 0 1.0 7.0 0.00 0.00 0.00 78 1016.6
20220809152839 66 315 7.0 7.0 0.00 0.00 0.00 77 1016.7
20220809152339 66 292 0.0 4.0 0.00 0.00 0.00 76 1016.6
20220809151839 66 292 1.0 4.0 0.00 0.00 0.00 75 1016.5
20220809151339 66 292 2.0 8.0 0.00 0.00 0.00 75 1016.4
20220809150838 67 292 3.0 4.0 0.00 0.00 0.00 74 1016.4
20220809150338 68 292 2.0 8.0 0.00 0.00 0.00 73 1016.3
20220809145838 68 292 1.0 10.0 0.00 0.00 0.00 71 1016.3
20220809145337 69 225 7.0 12.0 0.00 0.00 0.00 69 1016.2
20220809144837 70 292 2.0 11.0 0.00 0.00 0.00 68 1016.1
20220809144337 71 270 11.0 18.0 0.00 0.00 0.00 68 1015.9
20220809143837 71 292 3.0 3.0 0.00 0.00 0.00 68 1015.6
20220809143336 71 45 2.0 3.0 0.00 0.00 0.00 68 1015.2
20220809142836 71 67 2.0 4.0 0.00 0.00 0.00 68 1015.0
20220809142336 71 67 1.0 3.0 0.00 0.00 0.00 67 1015.0
20220809141835 71 45 0.0 4.0 0.00 0.00 0.00 67 1015.1
20220809141335 71 90 4.0 5.0 0.00 0.00 0.00 67 1015.2
20220809140835 70 45 0.0 6.0 0.00 0.00 0.00 66 1015.4
20220809140335 70 90 6.0 7.0 0.00 0.00 0.00 65 1015.5
20220809135834 70 45 2.0 6.0 0.00 0.00 0.00 65 1015.4
20220809135334 70 135 1.0 10.0 0.00 0.00 0.00 65 1015.5
20220809134834 70 45 2.0 8.0 0.00 0.00 0.00 65 1015.4
20220809134333 70 22 5.0 14.0 0.00 0.00 0.00 64 1015.4
20220809133833 71 45 12.0 15.0 0.00 0.00 0.00 64 1015.6
20220809133333 72 45 6.0 14.0 0.00 0.00 0.00 65 1015.8
20220809132833 72 22 4.0 11.0 0.00 0.00 0.00 65 1016.0
20220809132332 72 45 6.0 18.0 0.00 0.00 0.00 65 1016.1
20220809131832 73 67 7.0 12.0 0.00 0.00 0.00 64 1016.0
20220809131332 73 67 9.0 15.0 0.00 0.00 0.00 64 1015.8
20220809130831 75 45 7.0 16.0 0.00 0.00 0.00 62 1015.8
20220809130331 76 45 15.0 17.0 0.00 0.00 0.00 58 1015.5
20220809125831 78 45 7.0 16.0 0.00 0.00 0.00 54 1015.5
20220809125330 83 45 8.0 17.0 0.00 0.00 0.00 47 1015.3
20220809124830 87 0 8.0 12.0 0.00 0.00 0.00 42 1015.3
20220809124330 89 292 1.0 6.0 0.00 0.00 0.00 43 1015.2
20220809123830 90 292 4.0 10.0 0.00 0.00 0.00 44 1015.2
20220809123329 89 247 8.0 10.0 0.00 0.00 0.00 44 1015.0
20220809122829 89 225 3.0 11.0 0.00 0.00 0.00 44 1014.9
20220809122329 89 247 2.0 10.0 0.00 0.00 0.00 43 1015.0
20220809121828 89 270 2.0 11.0 0.00 0.00 0.00 43 1015.0
20220809121328 89 292 5.0 11.0 0.00 0.00 0.00 43 1015.1
20220809120828 89 270 4.0 12.0 0.00 0.00 0.00 43 1015.1
20220809120328 89 247 10.0 15.0 0.00 0.00 0.00 43 1014.7
20220809115827 89 270 4.0 22.0 0.00 0.00 0.00 42 1014.9
20220809115327 90 292 5.0 14.0 0.00 0.00 0.00 43 1014.7
20220809114827 90 247 14.0 17.0 0.00 0.00 0.00 42 1014.8
20220809114326 90 247 5.0 17.0 0.00 0.00 0.00 43 1014.9
20220809113826 90 292 10.0 15.0 0.00 0.00 0.00 44 1015.1
20220809113326 90 292 2.0 19.0 0.00 0.00 0.00 44 1015.2
20220809112825 89 292 7.0 14.0 0.00 0.00 0.00 44 1015.3
20220809112325 89 315 3.0 10.0 0.00 0.00 0.00 45 1015.5
20220809111825 89 225 5.0 14.0 0.00 0.00 0.00 44 1015.5
20220809111325 89 270 6.0 16.0 0.00 0.00 0.00 44 1015.5
20220809110824 89 270 14.0 14.0 0.00 0.00 0.00 45 1015.6
20220809110324 88 247 7.0 14.0 0.00 0.00 0.00 45 1015.6
20220809105824 88 315 5.0 14.0 0.00 0.00 0.00 44 1015.7
20220809105323 88 292 8.0 14.0 0.00 0.00 0.00 46 1015.7
20220809104823 87 270 4.0 8.0 0.00 0.00 0.00 46 1015.7
20220809104323 87 292 5.0 14.0 0.00 0.00 0.00 46 1015.7
20220809103822 87 315 6.0 9.0 0.00 0.00 0.00 47 1015.7
20220809103322 87 292 5.0 14.0 0.00 0.00 0.00 47 1015.7
20220809102822 88 270 12.0 12.0 0.00 0.00 0.00 46 1015.8
20220809102322 88 292 9.0 10.0 0.00 0.00 0.00 47 1015.8
20220809101821 88 247 3.0 8.0 0.00 0.00 0.00 47 1015.7
20220809101321 88 315 3.0 6.0 0.00 0.00 0.00 48 1015.9
20220809100821 88 292 1.0 5.0 0.00 0.00 0.00 49 1015.8
20220809100320 87 270 0.0 8.0 0.00 0.00 0.00 49 1015.9
20220809095820 87 270 8.0 8.0 0.00 0.00 0.00 49 1015.9
20220809095320 88 292 0.0 4.0 0.00 0.00 0.00 50 1015.8
20220809094820 87 292 0.0 8.0 0.00 0.00 0.00 50 1015.8
20220809094319 87 292 2.0 8.0 0.00 0.00 0.00 51 1015.9
20220809093819 87 270 1.0 10.0 0.00 0.00 0.00 51 1015.9
20220809093319 87 270 4.0 9.0 0.00 0.00 0.00 52 1015.9
20220809092818 86 292 2.0 4.0 0.00 0.00 0.00 52 1016.0
20220809092318 87 292 2.0 11.0 0.00 0.00 0.00 52 1016.0
20220809091818 86 292 9.0 11.0 0.00 0.00 0.00 54 1016.0
20220809091317 86 292 1.0 5.0 0.00 0.00 0.00 54 1016.1
20220809090817 85 315 2.0 4.0 0.00 0.00 0.00 54 1016.1
20220809090317 85 337 2.0 4.0 0.00 0.00 0.00 53 1016.1
20220809085817 84 315 0.0 4.0 0.00 0.00 0.00 55 1016.1
20220809085316 83 315 3.0 4.0 0.00 0.00 0.00 56 1016.1
20220809084816 82 315 0.0 4.0 0.00 0.00 0.00 57 1016.2
20220809084316 82 315 3.0 5.0 0.00 0.00 0.00 58 1016.2
20220809083815 82 45 1.0 4.0 0.00 0.00 0.00 59 1016.1
20220809083315 80 225 4.0 5.0 0.00 0.00 0.00 60 1016.2
20220809082815 80 22 1.0 4.0 0.00 0.00 0.00 59 1016.3
20220809082315 80 22 2.0 4.0 0.00 0.00 0.00 59 1016.3
20220809081814 79 67 0.0 3.0 0.00 0.00 0.00 60 1016.2
20220809081314 79 45 1.0 6.0 0.00 0.00 0.00 60 1016.3
20220809080814 79 45 2.0 5.0 0.00 0.00 0.00 59 1016.3
20220809080313 79 22 5.0 6.0 0.00 0.00 0.00 59 1016.3
20220809075813 79 315 2.0 3.0 0.00 0.00 0.00 62 1016.3
20220809075313 78 22 1.0 2.0 0.00 0.00 0.00 62 1016.4
20220809074813 77 22 2.0 5.0 0.00 0.00 0.00 62 1016.5
20220809074312 77 22 0.0 5.0 0.00 0.00 0.00 62 1016.4
20220809073812 77 22 5.0 5.0 0.00 0.00 0.00 62 1016.4
20220809073312 78 22 2.0 6.0 0.00 0.00 0.00 62 1016.4
20220809072811 78 0 2.0 5.0 0.00 0.00 0.00 61 1016.3
20220809072311 78 0 1.0 5.0 0.00 0.00 0.00 62 1016.3
20220809071811 77 45 1.0 3.0 0.00 0.00 0.00 62 1016.4
20220809071310 77 67 0.0 3.0 0.00 0.00 0.00 61 1016.4
20220809070810 78 22 2.0 5.0 0.00 0.00 0.00 59 1016.3
20220809070310 80 22 1.0 4.0 0.00 0.00 0.00 56 1016.3
20220809065810 82 22 4.0 4.0 0.00 0.00 0.00 56 1016.4
20220809065309 83 315 0.0 2.0 0.00 0.00 0.00 55 1016.4
20220809064809 84 315 1.0 4.0 0.00 0.00 0.00 53 1016.4
20220809064309 86 292 2.0 5.0 0.00 0.00 0.00 51 1016.4
20220809063808 88 292 5.0 5.0 0.00 0.00 0.00 53 1016.4
20220809063308 87 292 0.0 5.0 0.00 0.00 0.00 57 1016.5
20220809062808 84 292 1.0 3.0 0.00 0.00 0.00 61 1016.5
20220809062308 81 292 0.0 1.0 0.00 0.00 0.00 66 1016.5
20220809061807 77 292 0.0 3.0 0.00 0.00 0.00 71 1016.5
20220809061307 73 292 0.0 2.0 0.00 0.00 0.00 76 1016.5
20220809060807 72 270 0.0 2.0 0.00 0.00 0.00 78 1016.6
20220809060306 71 270 1.0 2.0 0.00 0.00 0.00 79 1016.6
20220809055806 71 270 0.0 1.0 0.00 0.00 0.00 80 1016.6
20220809055306 70 270 0.0 2.0 0.00 0.00 0.00 80 1016.6
20220809054805 70 270 1.0 2.0 0.00 0.00 0.00 80 1016.6
20220809054305 69 270 1.0 3.0 0.00 0.00 0.00 81 1016.6
20220809053805 69 270 2.0 2.0 0.00 0.00 0.00 82 1016.5
20220809053305 69 270 1.0 3.0 0.00 0.00 0.00 82 1016.5
20220809052804 69 270 2.0 2.0 0.00 0.00 0.00 82 1016.5
20220809052305 68 270 1.0 2.0 0.00 0.00 0.00 83 1016.5
20220809051804 68 270 0.0 1.0 0.00 0.00 0.00 84 1016.5
20220809051303 68 270 0.0 2.0 0.00 0.00 0.00 84 1016.4
20220809050803 68 270 0.0 2.0 0.00 0.00 0.00 85 1016.4
20220809050303 67 315 0.0 1.0 0.00 0.00 0.00 85 1016.5
20220809045803 67 247 0.0 0.0 0.00 0.00 0.00 85 1016.4
20220809045305 66 247 0.0 0.0 0.00 0.00 0.00 85 1016.4
20220809044802 66 247 0.0 0.0 0.00 0.00 0.00 85 1016.4
20220809044302 66 247 0.0 1.0 0.00 0.00 0.00 85 1016.4
20220809043801 66 247 0.0 1.0 0.00 0.00 0.00 86 1016.4
20220809043301 66 247 0.0 0.0 0.00 0.00 0.00 86 1016.4
20220809042801 66 247 0.0 0.0 0.00 0.00 0.00 86 1016.4
20220809042300 66 247 0.0 0.0 0.00 0.00 0.00 87 1016.3
20220809041800 66 247 0.0 0.0 0.00 0.00 0.00 87 1016.4
20220809041300 67 247 0.0 0.0 0.00 0.00 0.00 87 1016.4
20220809040800 67 247 0.0 0.0 0.00 0.00 0.00 88 1016.4
20220809040259 67 247 0.0 0.0 0.00 0.00 0.00 87 1016.4
20220809035759 67 247 0.0 0.0 0.00 0.00 0.00 88 1016.4
20220809035259 65 247 0.0 0.0 0.00 0.00 0.00 88 1016.4
20220809034758 63 247 0.0 0.0 0.00 0.00 0.00 88 1016.5
20220809034258 61 247 0.0 0.0 0.00 0.00 0.00 88 1016.5
20220809033758 61 247 0.0 1.0 0.00 0.00 0.00 88 1016.4
20220809033258 61 247 0.0 1.0 0.00 0.00 0.00 88 1016.4
20220809032757 60 247 0.0 1.0 0.00 0.00 0.00 88 1016.4
20220809032257 60 247 0.0 1.0 0.00 0.00 0.00 88 1016.4
20220809031757 60 247 0.0 0.0 0.00 0.00 0.00 88 1016.3
20220809031256 60 247 0.0 2.0 0.00 0.00 0.00 88 1016.3
20220809030756 60 247 1.0 3.0 0.00 0.00 0.00 88 1016.4
20220809030256 60 247 1.0 2.0 0.00 0.00 0.00 88 1016.4
20220809025756 60 247 2.0 3.0 0.00 0.00 0.00 87 1016.3
20220809025255 60 247 2.0 4.0 0.00 0.00 0.00 87 1016.3
20220809024755 60 247 2.0 5.0 0.00 0.00 0.00 87 1016.3
20220809024255 60 67 0.0 2.0 0.00 0.00 0.00 87 1016.3
20220809023754 60 67 1.0 1.0 0.00 0.00 0.00 88 1016.3
20220809023254 60 67 0.0 0.0 0.00 0.00 0.00 88 1016.3
20220809022754 60 67 0.0 0.0 0.00 0.00 0.00 87 1016.2
20220809022253 60 67 0.0 0.0 0.00 0.00 0.00 87 1016.2
20220809021753 60 67 0.0 0.0 0.00 0.00 0.00 87 1016.2
20220809021253 60 67 0.0 0.0 0.00 0.00 0.00 87 1016.2
20220809020753 60 67 0.0 2.0 0.00 0.00 0.00 87 1016.2
20220809020252 61 67 0.0 1.0 0.00 0.00 0.00 87 1016.1
20220809015752 61 67 0.0 1.0 0.00 0.00 0.00 87 1016.1
20220809015252 61 67 0.0 0.0 0.00 0.00 0.00 87 1016.1
20220809014751 61 67 0.0 0.0 0.00 0.00 0.00 87 1016.1
20220809014251 61 67 0.0 0.0 0.00 0.00 0.00 86 1016.1
20220809013751 61 67 0.0 0.0 0.00 0.00 0.00 86 1016.1
20220809013250 61 67 0.0 0.0 0.00 0.00 0.00 86 1016.2
20220809012750 61 67 0.0 0.0 0.00 0.00 0.00 87 1016.2
20220809012250 61 67 0.0 1.0 0.00 0.00 0.00 87 1016.2
20220809011750 61 67 0.0 0.0 0.00 0.00 0.00 87 1016.3
20220809011249 62 67 0.0 1.0 0.00 0.00 0.00 86 1016.3
20220809010749 62 67 0.0 2.0 0.00 0.00 0.00 86 1016.3
20220809010249 62 67 1.0 1.0 0.00 0.00 0.00 86 1016.3
20220809005748 62 67 0.0 0.0 0.00 0.00 0.00 86 1016.3
20220809005248 62 67 0.0 0.0 0.00 0.00 0.00 86 1016.2
20220809004748 62 67 0.0 0.0 0.00 0.00 0.00 86 1016.3
20220809004248 62 67 0.0 0.0 0.00 0.00 0.00 86 1016.3
20220809003747 62 67 0.0 0.0 0.00 0.00 0.00 86 1016.4
20220809003247 62 67 0.0 1.0 0.00 0.00 0.00 86 1016.3
20220809002747 62 67 0.0 0.0 0.00 0.00 0.00 86 1016.4
20220809002246 62 67 0.0 1.0 0.00 0.00 0.00 86 1016.4
20220809001746 62 67 1.0 1.0 0.00 0.00 0.00 86 1016.4
20220809001246 62 67 1.0 1.0 0.00 0.00 0.00 86 1016.4
20220809000746 62 67 0.0 0.0 0.00 0.00 0.00 86 1016.4
20220809000247 62 67 0.0 0.0 0.00 0.00 0.00 86 1016.3
20220808235745 62 67 0.0 0.0 0.00 0.00 0.00 86 1016.4
20220808235245 62 67 0.0 0.0 0.00 0.00 0.00 86 1016.5
20220808234744 62 67 0.0 2.0 0.00 0.00 0.00 86 1016.5
20220808234244 62 67 0.0 3.0 0.00 0.00 0.00 86 1016.4
20220808233744 63 45 1.0 3.0 0.00 0.00 0.00 86 1016.5
20220808233243 63 45 2.0 4.0 0.00 0.00 0.00 86 1016.7
20220808232743 63 67 2.0 4.0 0.00 0.00 0.00 85 1016.6
20220808232243 63 45 3.0 3.0 0.00 0.00 0.00 85 1016.6
20220808231743 63 45 2.0 4.0 0.00 0.00 0.00 84 1016.7